Location: Unspecified
(33.9239°N, 118.0544°W)
Time: 20:41:00
(UTC-07:00)

Cosmos 1674 - Visible Passes

Search period start: 25 June 2017 00:00
Search period end: 05 July 2017 00:00
Orbit: 497 x 524 km, 82.5° (Epoch: 25 June)

Date Brightness Start Highest point End Pass type
(mag) Time Alt. Az. Time Alt. Az. Time Alt. Az.
25 Jun 4.4 22:05:09 10° SW 22:08:30 30° W 22:11:51 10° NNW visible
26 Jun 3.9 21:48:20 10° SSW 21:51:53 39° W 21:55:26 10° N visible
27 Jun 3.4 21:31:36 10° SSW 21:35:16 53° W 21:38:57 10° N visible
28 Jun 2.9 21:14:56 10° SSW 21:18:41 72° W 21:22:25 10° N visible
29 Jun 2.6 20:58:20 10° S 21:02:05 84° E 21:05:51 10° N visible
30 Jun 2.7 20:41:49 10° S 20:45:30 62° E 20:49:12 10° NNE visible
02 Jul 6.0 21:47:05 10° W 21:48:05 11° WNW 21:49:05 10° WNW visible
03 Jul 5.7 21:29:22 10° WSW 21:31:25 14° WNW 21:33:28 10° NW visible
04 Jul 5.6 21:12:07 10° WSW 21:14:45 18° WNW 21:17:23 10° NNW visible
